| time (UTC) | temp C | wind direction | speed KPH | gust KPH | rain 1hr cm | rain 24hr cm | rain mn cm | humidity % | barometer mb |
| 20260507002056 | 6 | 29 | 6.4 | 12.9 | 0.00 | 0.00 | 0.00 | 92 | 1004.7 |
| 20260507001113 | 6 | 32 | 6.4 | 12.9 | 0.00 | 0.00 | 0.00 | 92 | 1004.6 |
| 20260507000050 | 6 | 22 | 8.0 | 12.9 | 0.00 | 0.00 | 0.00 | 92 | 1004.5 |
| 20260506235046 | 6 | 45 | 8.0 | 12.9 | 0.00 | 0.00 | 0.00 | 92 | 1004.6 |
| 20260506234104 | 6 | 359 | 6.4 | 12.9 | 0.00 | 0.00 | 0.00 | 92 | 1004.5 |
| 20260506233038 | 7 | 14 | 9.7 | 14.5 | 0.00 | 0.00 | 0.00 | 91 | 1004.4 |
| 20260506232055 | 7 | 31 | 6.4 | 11.3 | 0.00 | 0.00 | 0.00 | 91 | 1004.2 |
| 20260506231031 | 7 | 23 | 6.4 | 11.3 | 0.00 | 0.00 | 0.00 | 91 | 1004.1 |
| 20260506230029 | 7 | 33 | 12.9 | 17.7 | 0.00 | 0.00 | 0.00 | 91 | 1003.7 |
| 20260506225044 | 7 | 4 | 12.9 | 20.9 | 0.00 | 0.00 | 0.00 | 91 | 1003.6 |
| 20260506224121 | 7 | 59 | 8.0 | 16.1 | 0.00 | 0.00 | 0.00 | 90 | 1003.6 |
| 20260506223117 | 7 | 17 | 9.7 | 17.7 | 0.00 | 0.00 | 0.00 | 90 | 1003.6 |
| 20260506222133 | 7 | 4 | 11.3 | 17.7 | 0.00 | 0.00 | 0.00 | 90 | 1003.5 |
| 20260506221111 | 7 | 1 | 8.0 | 12.9 | 0.00 | 0.00 | 0.00 | 90 | 1003.6 |
| 20260506220106 | 7 | 8 | 11.3 | 17.7 | 0.00 | 0.00 | 0.00 | 90 | 1003.5 |
| 20260506215102 | 7 | 25 | 6.4 | 12.9 | 0.00 | 0.00 | 0.00 | 91 | 1003.6 |
| 20260506214059 | 7 | 14 | 8.0 | 12.9 | 0.00 | 0.00 | 0.00 | 91 | 1003.6 |
| 20260506213056 | 7 | 23 | 6.4 | 9.7 | 0.00 | 0.00 | 0.00 | 91 | 1003.7 |
| 20260506212051 | 7 | 48 | 6.4 | 11.3 | 0.00 | 0.00 | 0.00 | 91 | 1003.7 |
| 20260506211048 | 7 | 20 | 9.7 | 17.7 | 0.00 | 0.00 | 0.00 | 91 | 1003.4 |
| 20260506210049 | 7 | 16 | 9.7 | 17.7 | 0.00 | 0.00 | 0.00 | 91 | 1003.5 |
| 20260506205041 | 7 | 3 | 8.0 | 14.5 | 0.00 | 0.00 | 0.00 | 91 | 1003.4 |
| 20260506204037 | 7 | 28 | 8.0 | 14.5 | 0.00 | 0.00 | 0.00 | 91 | 1003.1 |
| 20260506203034 | 7 | 42 | 8.0 | 14.5 | 0.00 | 0.00 | 0.00 | 91 | 1003.1 |
| 20260506202030 | 7 | 57 | 6.4 | 9.7 | 0.00 | 0.00 | 0.00 | 91 | 1003.0 |
| 20260506201027 | 7 | 104 | 8.0 | 12.9 | 0.00 | 0.00 | 0.00 | 91 | 1003.0 |
| 20260506200023 | 7 | 53 | 8.0 | 12.9 | 0.00 | 0.00 | 0.00 | 90 | 1002.9 |
| 20260506195140 | 7 | 33 | 6.4 | 12.9 | 0.00 | 0.00 | 0.00 | 90 | 1002.9 |
| 20260506194116 | 7 | 22 | 6.4 | 9.7 | 0.00 | 0.00 | 0.00 | 89 | 1003.0 |
| 20260506193112 | 7 | 11 | 6.4 | 11.3 | 0.00 | 0.00 | 0.00 | 88 | 1002.7 |
| 20260506192108 | 8 | 4 | 8.0 | 12.9 | 0.00 | 0.00 | 0.00 | 87 | 1002.6 |
| 20260506191131 | 8 | 18 | 9.7 | 12.9 | 0.00 | 0.00 | 0.00 | 86 | 1002.6 |
| 20260506190101 | 8 | 7 | 9.7 | 14.5 | 0.00 | 0.00 | 0.00 | 86 | 1002.4 |
| 20260506185057 | 8 | 0 | 11.3 | 16.1 | 0.00 | 0.00 | 0.00 | 84 | 1002.4 |
| 20260506184058 | 9 | 14 | 9.7 | 14.5 | 0.00 | 0.00 | 0.00 | 84 | 1002.2 |
| 20260506183052 | 9 | 0 | 9.7 | 12.9 | 0.00 | 0.00 | 0.00 | 83 | 1001.9 |
| 20260506182047 | 10 | 0 | 9.7 | 16.1 | 0.00 | 0.00 | 0.00 | 81 | 1001.9 |
| 20260506181043 | 10 | 23 | 6.4 | 9.7 | 0.00 | 0.00 | 0.00 | 81 | 1001.7 |
| 20260506180039 | 10 | 21 | 6.4 | 12.9 | 0.00 | 0.00 | 0.00 | 81 | 1001.7 |
| 20260506175036 | 10 | 3 | 9.7 | 14.5 | 0.00 | 0.00 | 0.00 | 81 | 1001.7 |
| 20260506174032 | 11 | 19 | 8.0 | 14.5 | 0.00 | 0.00 | 0.00 | 80 | 1001.7 |
| 20260506173049 | 11 | 4 | 9.7 | 14.5 | 0.00 | 0.00 | 0.00 | 79 | 1001.7 |
| 20260506172044 | 11 | 56 | 8.0 | 12.9 | 0.00 | 0.00 | 0.00 | 77 | 1001.4 |
| 20260506171121 | 12 | 0 | 8.0 | 12.9 | 0.00 | 0.00 | 0.00 | 72 | 1001.4 |
| 20260506170118 | 12 | 23 | 8.0 | 12.9 | 0.00 | 0.00 | 0.00 | 76 | 1001.3 |
| 20260506165115 | 11 | 11 | 8.0 | 14.5 | 0.00 | 0.00 | 0.00 | 80 | 1001.1 |
| 20260506164110 | 11 | 69 | 8.0 | 12.9 | 0.00 | 0.00 | 0.00 | 79 | 1001.1 |
| 20260506163106 | 11 | 48 | 6.4 | 11.3 | 0.00 | 0.00 | 0.00 | 80 | 1001.0 |
| 20260506162104 | 11 | 39 | 11.3 | 17.7 | 0.00 | 0.00 | 0.00 | 79 | 1000.9 |
| 20260506161059 | 12 | 42 | 9.7 | 17.7 | 0.00 | 0.00 | 0.00 | 79 | 1001.0 |
| 20260506160056 | 12 | 45 | 11.3 | 19.3 | 0.00 | 0.00 | 0.00 | 78 | 1001.0 |
| 20260506155052 | 12 | 29 | 12.9 | 17.7 | 0.00 | 0.00 | 0.00 | 78 | 1001.0 |
| 20260506154049 | 12 | 59 | 12.9 | 17.7 | 0.00 | 0.00 | 0.00 | 78 | 1001.0 |
| 20260506153045 | 12 | 55 | 12.9 | 20.9 | 0.00 | 0.00 | 0.00 | 79 | 1001.1 |
| 20260506152102 | 12 | 34 | 11.3 | 19.3 | 0.00 | 0.00 | 0.00 | 79 | 1001.1 |
| 20260506151038 | 12 | 45 | 12.9 | 17.7 | 0.00 | 0.00 | 0.00 | 79 | 1001.2 |
| 20260506150035 | 12 | 68 | 12.9 | 17.7 | 0.00 | 0.00 | 0.00 | 80 | 1001.0 |
| 20260506145032 | 12 | 49 | 9.7 | 16.1 | 0.00 | 0.00 | 0.00 | 80 | 1001.1 |
| 20260506144027 | 12 | 32 | 9.7 | 16.1 | 0.00 | 0.00 | 0.00 | 81 | 1001.2 |
| 20260506143023 | 12 | 45 | 12.9 | 17.7 | 0.00 | 0.00 | 0.00 | 80 | 1001.2 |
| 20260506142140 | 12 | 22 | 9.7 | 17.7 | 0.00 | 0.00 | 0.00 | 80 | 1001.2 |
| 20260506141136 | 13 | 49 | 11.3 | 17.7 | 0.00 | 0.00 | 0.00 | 80 | 1001.3 |
| 20260506140114 | 13 | 19 | 9.7 | 17.7 | 0.00 | 0.00 | 0.00 | 80 | 1001.3 |
| 20260506135109 | 13 | 33 | 9.7 | 12.9 | 0.00 | 0.00 | 0.00 | 80 | 1001.3 |
| 20260506134107 | 13 | 16 | 11.3 | 17.7 | 0.00 | 0.00 | 0.00 | 77 | 1001.3 |
| 20260506133102 | 14 | 3 | 8.0 | 12.9 | 0.00 | 0.00 | 0.00 | 76 | 1001.1 |
| 20260506132058 | 15 | 45 | 9.7 | 14.5 | 0.00 | 0.00 | 0.00 | 75 | 1001.0 |
| 20260506131055 | 15 | 30 | 8.0 | 12.9 | 0.00 | 0.00 | 0.00 | 73 | 1001.0 |
| 20260506130052 | 15 | 37 | 8.0 | 12.9 | 0.00 | 0.00 | 0.00 | 76 | 1001.0 |
| 20260506125048 | 14 | 25 | 8.0 | 12.9 | 0.00 | 0.00 | 0.00 | 77 | 1001.1 |
| 20260506124045 | 14 | 7 | 6.4 | 9.7 | 0.00 | 0.00 | 0.00 | 77 | 1001.3 |
| 20260506123041 | 14 | 8 | 8.0 | 11.3 | 0.00 | 0.00 | 0.00 | 77 | 1001.1 |
| 20260506122037 | 14 | 348 | 11.3 | 14.5 | 0.00 | 0.00 | 0.00 | 77 | 1001.0 |
| 20260506121034 | 14 | 344 | 9.7 | 14.5 | 0.00 | 0.00 | 0.00 | 76 | 1001.0 |
| 20260506120035 | 15 | 1 | 9.7 | 12.9 | 0.00 | 0.00 | 0.00 | 75 | 1000.9 |
| 20260506115026 | 15 | 352 | 11.3 | 17.7 | 0.00 | 0.00 | 0.00 | 72 | 1000.8 |
| 20260506114023 | 15 | 356 | 9.7 | 14.5 | 0.00 | 0.00 | 0.00 | 72 | 1000.7 |
| 20260506113120 | 15 | 15 | 9.7 | 14.5 | 0.00 | 0.00 | 0.00 | 70 | 1000.5 |
| 20260506112116 | 16 | 16 | 9.7 | 17.7 | 0.00 | 0.00 | 0.00 | 69 | 1000.3 |
| 20260506111113 | 15 | 18 | 12.9 | 17.7 | 0.00 | 0.00 | 0.00 | 70 | 1000.4 |
| 20260506110108 | 15 | 37 | 11.3 | 20.9 | 0.00 | 0.00 | 0.00 | 70 | 1000.4 |
| 20260506105105 | 15 | 27 | 11.3 | 17.7 | 0.00 | 0.00 | 0.00 | 71 | 1000.4 |
| 20260506104101 | 15 | 28 | 14.5 | 22.5 | 0.00 | 0.00 | 0.00 | 72 | 1000.3 |
| 20260506103058 | 14 | 17 | 9.7 | 16.1 | 0.00 | 0.00 | 0.00 | 73 | 1000.5 |
| 20260506102055 | 14 | 85 | 6.4 | 14.5 | 0.00 | 0.00 | 0.00 | 73 | 1000.7 |
| 20260506101051 | 14 | 54 | 6.4 | 14.5 | 0.00 | 0.00 | 0.00 | 73 | 1000.6 |
| 20260506100047 | 14 | 45 | 9.7 | 19.3 | 0.00 | 0.00 | 0.00 | 74 | 1000.5 |
| 20260506095043 | 13 | 65 | 11.3 | 17.7 | 0.00 | 0.00 | 0.00 | 75 | 1000.3 |
| 20260506094045 | 13 | 63 | 11.3 | 17.7 | 0.00 | 0.00 | 0.00 | 75 | 1000.5 |
| 20260506093036 | 13 | 67 | 16.1 | 22.5 | 0.00 | 0.00 | 0.00 | 74 | 1000.4 |
| 20260506092053 | 13 | 45 | 11.3 | 17.7 | 0.00 | 0.00 | 0.00 | 72 | 1000.7 |
| 20260506091030 | 13 | 60 | 9.7 | 16.1 | 0.00 | 0.00 | 0.00 | 72 | 1000.6 |
| 20260506090026 | 13 | 52 | 12.9 | 19.3 | 0.00 | 0.00 | 0.00 | 71 | 1000.7 |
| 20260506085023 | 14 | 69 | 11.3 | 17.7 | 0.00 | 0.00 | 0.00 | 71 | 1000.7 |
| 20260506084119 | 14 | 45 | 11.3 | 19.3 | 0.00 | 0.00 | 0.00 | 71 | 1000.5 |
| 20260506083115 | 14 | 90 | 11.3 | 16.1 | 0.00 | 0.00 | 0.00 | 71 | 1000.6 |
| 20260506082112 | 13 | 45 | 12.9 | 20.9 | 0.00 | 0.00 | 0.00 | 73 | 1000.5 |
| 20260506081108 | 13 | 62 | 11.3 | 16.1 | 0.00 | 0.00 | 0.00 | 74 | 1000.5 |
| 20260506080104 | 13 | 92 | 11.3 | 17.7 | 0.00 | 0.00 | 0.00 | 74 | 1000.5 |
| 20260506073054 | 13 | 90 | 14.5 | 24.1 | 0.00 | 0.00 | 0.00 | 75 | 1000.1 |
| 20260506072049 | 12 | 54 | 14.5 | 25.7 | 0.00 | 0.00 | 0.00 | 79 | 1000.2 |
| 20260506071046 | 12 | 76 | 16.1 | 22.5 | 0.00 | 0.00 | 0.00 | 81 | 1000.5 |
| 20260506062028 | 10 | 52 | 17.7 | 27.4 | 0.00 | 0.00 | 0.00 | 90 | 1001.0 |
| 20260506061024 | 10 | 51 | 14.5 | 24.1 | 0.00 | 0.00 | 0.00 | 90 | 1001.2 |
| 20260506060121 | 9 | 53 | 17.7 | 25.7 | 0.00 | 0.00 | 0.00 | 91 | 1001.3 |
| 20260506051143 | 8 | 24 | 16.1 | 27.4 | 0.00 | 0.00 | 0.00 | 95 | 1001.6 |
| 20260506045100 | 8 | 45 | 9.7 | 19.3 | 0.00 | 0.00 | 0.00 | 97 | 1002.0 |
| 20260506044052 | 8 | 45 | 12.9 | 16.1 | 0.00 | 0.00 | 0.00 | 98 | 1002.2 |
| 20260506043048 | 8 | 42 | 11.3 | 19.3 | 0.00 | 0.00 | 0.00 | 98 | 1002.2 |
| 20260506042044 | 8 | 108 | 16.1 | 20.9 | 0.00 | 0.00 | 0.00 | 99 | 1002.3 |
| 20260506041041 | 8 | 45 | 12.9 | 17.7 | 0.00 | 0.00 | 0.00 | 99 | 1002.6 |
| 20260506040037 | 8 | 45 | 12.9 | 17.7 | 0.00 | 0.00 | 0.00 | 99 | 1002.4 |
| 20260506035034 | 8 | 34 | 12.9 | 17.7 | 0.00 | 0.00 | 0.00 | 99 | 1002.4 |
| 20260506034029 | 8 | 50 | 9.7 | 17.7 | 0.00 | 0.00 | 0.00 | 99 | 1002.4 |
| 20260506033031 | 8 | 60 | 12.9 | 24.1 | 0.00 | 0.00 | 0.00 | 99 | 1002.5 |
| 20260506032023 | 8 | 70 | 14.5 | 22.5 | 0.00 | 0.00 | 0.00 | 99 | 1002.5 |
| 20260506031119 | 8 | 38 | 12.9 | 20.9 | 0.00 | 0.00 | 0.00 | 99 | 1002.6 |
| 20260506030116 | 8 | 31 | 14.5 | 20.9 | 0.00 | 0.00 | 0.00 | 99 | 1002.7 |
| 20260506025152 | 8 | 37 | 11.3 | 20.9 | 0.00 | 0.00 | 0.00 | 99 | 1002.8 |
| 20260506024128 | 8 | 43 | 14.5 | 24.1 | 0.00 | 0.00 | 0.00 | 99 | 1002.8 |
| 20260506023126 | 8 | 50 | 14.5 | 20.9 | 0.00 | 0.00 | 0.00 | 99 | 1003.0 |
| 20260506022101 | 8 | 27 | 11.3 | 19.3 | 0.00 | 0.00 | 0.00 | 99 | 1003.1 |
| 20260506021057 | 8 | 56 | 16.1 | 24.1 | 0.00 | 0.00 | 0.00 | 99 | 1003.1 |
| 20260506020054 | 8 | 54 | 12.9 | 24.1 | 0.00 | 0.00 | 0.00 | 99 | 1003.2 |
| 20260506015051 | 8 | 207 | 11.3 | 17.7 | 0.00 | 0.00 | 0.00 | 99 | 1003.4 |
| 20260506014047 | -17 | 0.0 | 0.0 | 0.00 | 0.00 | 0.00 | 1003.4 | ||
| 20260506013103 | -17 | 0.0 | 0.0 | 0.00 | 0.00 | 0.00 | 1003.2 | ||
| 20260506012040 | -17 | 0.0 | 0.0 | 0.00 | 0.00 | 0.00 | 1003.2 | ||
| 20260506011036 | -17 | 0.0 | 0.0 | 0.00 | 0.00 | 0.00 | 1003.3 | ||
| 20260506010032 | -17 | 0.0 | 0.0 | 0.00 | 0.00 | 0.00 | 1003.4 | ||
| 20260506005049 | -17 | 0.0 | 0.0 | 0.00 | 0.00 | 0.00 | 1003.5 | ||
| 20260506004046 | -17 | 0.0 | 0.0 | 0.00 | 0.00 | 0.00 | 1003.5 | ||
| 20260506003021 | -17 | 0.0 | 0.0 | 0.00 | 0.00 | 0.00 | 1003.9 |